ZA-AEROSAT (42713 NORAD) Tracking and Keplerian Element Data

This shows tracking and keplerian element data for the satellite.

Feedback or suggestion? Click here.




ElementValue
Catalog42713
NameZA-AEROSAT
Epoch Orbit11573
Epoch Day146.16880773
Epoch Year2019
RAAN23.0857
Inclination51.6222
Eccentricity0.0007429
Argument of Perigee250.86
Mean Anonmoly109.1613
Mean Motion16.16445382
Decay Rate0.00658807
L11 42713U 98067LU 19146.16880773 .00658807 27093-3 43451-3 0 9996
L22 42713 51.6222 23.0857 0007429 250.8600 109.1613 16.16445382115733

Live tracking and technical data element details for ZA-AEROSAT (NORAD 42713). ZA-AEROSAT can be tracked NOW for your location showing map with azimuth and elevation plus other details from your city location.

Track the satellite on the map from your city or location and see movement details for azimuth, elevation, latitude, longitude, range, height, and movement on the map or in text.







IsCatalogInMostPopularTable: catalog: 42713, numindb: 238
Update: records affected: 1



GetName: 42713 ZA-AEROSAT

Hit Count: updated at: Sun, 26 May 2019 19:12:57 GMT